Time,TemperatureF,DewpointF,PressureIn,WindDirection,WindDirectionDegrees,WindSpeedMPH,WindSpeedGustMPH,Humidity,HourlyPrecipIn,Conditions,Clouds,dailyrainin,SoftwareType,DateUTC
2013-04-05 00:03:00,44.1,26.6,29.82,North,0,0.0,0.0,50,0.00,,SKC,0.00,VWS V13.00,2013-04-05 06:03:00,
2013-04-05 00:08:00,44.2,26.3,29.82,North,0,0.0,0.0,49,0.00,,SKC,0.00,VWS V13.00,2013-04-05 06:08:00,
2013-04-05 00:13:00,44.2,26.3,29.82,North,0,0.0,0.0,49,0.00,,SKC,0.00,VWS V13.00,2013-04-05 06:13:00,
2013-04-05 00:18:00,44.2,26.3,29.82,North,0,0.0,0.0,49,0.00,,SKC,0.00,VWS V13.00,2013-04-05 06:18:00,
2013-04-05 00:23:00,44.2,26.3,29.82,North,0,0.0,0.0,49,0.00,,SKC,0.00,VWS V13.00,2013-04-05 06:23:00,
2013-04-05 00:28:00,44.1,26.1,29.82,North,0,0.0,0.0,49,0.00,,SKC,0.00,VWS V13.00,2013-04-05 06:28:00,
2013-04-05 00:33:00,43.7,26.3,29.82,North,0,0.0,0.0,50,0.00,,SKC,0.00,VWS V13.00,2013-04-05 06:33:00,
2013-04-05 00:38:00,43.7,26.3,29.82,North,0,0.0,0.0,50,0.00,,SKC,0.00,VWS V13.00,2013-04-05 06:38:00,
2013-04-05 00:43:00,43.3,26.0,29.82,North,0,0.0,0.0,50,0.00,,SKC,0.00,VWS V13.00,2013-04-05 06:43:00,
2013-04-05 00:48:00,43.3,26.0,29.82,North,0,0.0,0.0,50,0.00,,SKC,0.00,VWS V13.00,2013-04-05 06:48:00,
2013-04-05 00:53:00,43.5,26.1,29.82,North,0,0.0,0.0,50,0.00,,SKC,0.00,VWS V13.00,2013-04-05 06:53:00,
2013-04-05 00:58:00,43.7,26.3,29.79,North,0,0.0,0.0,50,0.00,,SKC,0.00,VWS V13.00,2013-04-05 06:58:00,
2013-04-05 01:03:00,43.7,25.8,29.79,North,0,0.0,0.0,49,0.00,,SKC,0.00,VWS V13.00,2013-04-05 07:03:00,
2013-04-05 01:08:00,43.3,26.0,29.79,North,0,0.0,0.0,50,0.00,,SKC,0.00,VWS V13.00,2013-04-05 07:08:00,
2013-04-05 01:14:00,43.0,25.6,29.79,North,0,0.0,0.0,50,0.00,,SKC,0.00,VWS V13.00,2013-04-05 07:14:00,
2013-04-05 01:19:00,43.0,25.1,29.79,North,0,0.0,0.0,49,0.00,,SKC,0.00,VWS V13.00,2013-04-05 07:19:00,
2013-04-05 01:24:00,43.2,25.3,29.79,North,0,0.0,0.0,49,0.00,,SKC,0.00,VWS V13.00,2013-04-05 07:24:00,
2013-04-05 01:29:00,43.3,25.5,29.79,North,0,0.0,0.0,49,0.00,,SKC,0.00,VWS V13.00,2013-04-05 07:29:00,
2013-04-05 01:35:00,43.3,25.5,29.79,North,0,0.0,0.0,49,0.00,,SKC,0.00,VWS V13.00,2013-04-05 07:35:00,
2013-04-05 01:40:00,43.2,25.3,29.79,North,0,0.0,0.0,49,0.00,,SKC,0.00,VWS V13.00,2013-04-05 07:40:00,
2013-04-05 01:45:00,43.2,25.8,29.79,North,0,0.0,0.0,50,0.00,,SKC,0.00,VWS V13.00,2013-04-05 07:45:00,
2013-04-05 01:50:00,43.0,25.6,29.79,North,0,0.0,0.0,50,0.00,,SKC,0.00,VWS V13.00,2013-04-05 07:50:00,
2013-04-05 01:55:00,42.8,25.5,29.79,North,0,0.0,0.0,50,0.00,,SKC,0.00,VWS V13.00,2013-04-05 07:55:00,
2013-04-05 02:00:00,42.8,25.5,29.79,North,0,0.0,0.0,50,0.00,,SKC,0.00,VWS V13.00,2013-04-05 08:00:00,
2013-04-05 02:05:00,43.2,25.8,29.79,North,0,0.0,0.0,50,0.00,,SKC,0.00,VWS V13.00,2013-04-05 08:05:00,
2013-04-05 02:10:00,43.3,26.4,29.79,North,0,0.0,0.0,51,0.00,,SKC,0.00,VWS V13.00,2013-04-05 08:10:00,
2013-04-05 02:15:00,43.3,26.4,29.79,North,0,0.0,0.0,51,0.00,,SKC,0.00,VWS V13.00,2013-04-05 08:15:00,
2013-04-05 02:20:00,43.3,26.4,29.79,North,0,0.0,0.0,51,0.00,,SKC,0.00,VWS V13.00,2013-04-05 08:20:00,
2013-04-05 02:25:00,43.3,26.4,29.79,North,0,0.0,0.0,51,0.00,,SKC,0.00,VWS V13.00,2013-04-05 08:25:00,
2013-04-05 02:31:00,43.3,26.4,29.79,North,0,0.0,0.0,51,0.00,,SKC,0.00,VWS V13.00,2013-04-05 08:31:00,
2013-04-05 02:36:00,43.3,26.9,29.79,North,0,0.0,0.0,52,0.00,,SKC,0.00,VWS V13.00,2013-04-05 08:36:00,
2013-04-05 02:41:00,43.2,26.7,29.79,North,0,0.0,0.0,52,0.00,,SKC,0.00,VWS V13.00,2013-04-05 08:41:00,
2013-04-05 02:46:00,43.2,26.7,29.79,North,0,0.0,0.0,52,0.00,,SKC,0.00,VWS V13.00,2013-04-05 08:46:00,
2013-04-05 02:51:00,43.0,27.0,29.79,North,0,0.0,0.0,53,0.00,,SKC,0.00,VWS V13.00,2013-04-05 08:51:00,
2013-04-05 02:56:00,43.0,27.0,29.79,North,0,0.0,0.0,53,0.00,,SKC,0.00,VWS V13.00,2013-04-05 08:56:00,
2013-04-05 03:01:00,43.0,27.0,29.79,North,0,0.0,0.0,53,0.00,,SKC,0.00,VWS V13.00,2013-04-05 09:01:00,
2013-04-05 03:06:00,43.0,27.0,29.79,North,0,0.0,0.0,53,0.00,,SKC,0.00,VWS V13.00,2013-04-05 09:06:00,
2013-04-05 03:11:00,43.3,26.9,29.79,North,0,0.0,0.0,52,0.00,,SKC,0.00,VWS V13.00,2013-04-05 09:11:00,
2013-04-05 03:17:00,43.7,26.3,29.79,North,0,0.0,0.0,50,0.00,,SKC,0.00,VWS V13.00,2013-04-05 09:17:00,
2013-04-05 03:22:00,44.4,26.5,29.79,North,0,0.0,0.0,49,0.00,,SKC,0.00,VWS V13.00,2013-04-05 09:22:00,
2013-04-05 03:27:00,44.8,26.3,29.79,North,0,0.0,0.0,48,0.00,,SKC,0.00,VWS V13.00,2013-04-05 09:27:00,
2013-04-05 03:32:00,45.1,26.6,29.79,North,0,0.0,0.0,48,0.00,,SKC,0.00,VWS V13.00,2013-04-05 09:32:00,
2013-04-05 03:37:00,45.3,26.3,29.79,North,0,0.0,0.0,47,0.00,,SKC,0.00,VWS V13.00,2013-04-05 09:37:00,
2013-04-05 03:42:00,45.5,25.9,29.79,North,0,0.0,0.0,46,0.00,,SKC,0.00,VWS V13.00,2013-04-05 09:42:00,
2013-04-05 03:47:00,45.9,26.3,29.79,North,0,0.0,0.0,46,0.00,,SKC,0.00,VWS V13.00,2013-04-05 09:47:00,
2013-04-05 03:52:00,45.9,26.3,29.79,North,0,0.0,0.0,46,0.00,,SKC,0.00,VWS V13.00,2013-04-05 09:52:00,
2013-04-05 03:57:00,45.7,25.0,29.79,North,0,0.0,0.0,44,0.00,,SKC,0.00,VWS V13.00,2013-04-05 09:57:00,
2013-04-05 04:02:00,46.2,25.0,29.79,North,0,0.0,0.0,43,0.00,,SKC,0.00,VWS V13.00,2013-04-05 10:02:00,
2013-04-05 04:07:00,46.6,26.9,29.79,North,0,0.0,0.0,46,0.00,,SKC,0.00,VWS V13.00,2013-04-05 10:07:00,
2013-04-05 04:12:00,46.4,26.2,29.76,North,0,0.0,0.0,45,0.00,,SKC,0.00,VWS V13.00,2013-04-05 10:12:00,
2013-04-05 04:17:00,46.4,27.3,29.76,North,0,0.0,0.0,47,0.00,,SKC,0.00,VWS V13.00,2013-04-05 10:17:00,
2013-04-05 04:22:00,46.0,27.0,29.76,North,0,0.0,0.0,47,0.00,,SKC,0.00,VWS V13.00,2013-04-05 10:22:00,
2013-04-05 04:27:00,46.4,27.3,29.79,North,0,0.0,0.0,47,0.00,,SKC,0.00,VWS V13.00,2013-04-05 10:27:00,
2013-04-05 04:32:00,47.1,27.4,29.79,North,0,0.0,0.0,46,0.00,,SKC,0.00,VWS V13.00,2013-04-05 10:32:00,
2013-04-05 04:37:00,47.1,26.9,29.79,North,0,0.0,0.0,45,0.00,,SKC,0.00,VWS V13.00,2013-04-05 10:37:00,
2013-04-05 04:42:00,46.9,27.3,29.79,North,0,0.0,0.0,46,0.00,,SKC,0.00,VWS V13.00,2013-04-05 10:42:00,
2013-04-05 04:47:00,46.9,28.3,29.79,North,0,0.0,0.0,48,0.00,,SKC,0.00,VWS V13.00,2013-04-05 10:47:00,
2013-04-05 04:52:00,46.8,27.6,29.79,North,0,0.0,0.0,47,0.00,,SKC,0.00,VWS V13.00,2013-04-05 10:52:00,
2013-04-05 04:58:00,46.6,28.0,29.79,North,0,0.0,0.0,48,0.00,,SKC,0.00,VWS V13.00,2013-04-05 10:58:00,
2013-04-05 05:03:00,46.4,28.3,29.79,North,0,0.0,0.0,49,0.00,,SKC,0.00,VWS V13.00,2013-04-05 11:03:00,
2013-04-05 05:08:00,46.0,28.9,29.79,North,0,0.0,0.0,51,0.00,,SKC,0.00,VWS V13.00,2013-04-05 11:08:00,
2013-04-05 05:13:00,45.5,28.9,29.79,North,0,0.0,0.0,52,0.00,,SKC,0.00,VWS V13.00,2013-04-05 11:13:00,
2013-04-05 05:18:00,45.3,29.2,29.79,North,0,0.0,0.0,53,0.00,,SKC,0.00,VWS V13.00,2013-04-05 11:18:00,
2013-04-05 05:23:00,45.1,29.5,29.79,North,0,0.0,0.0,54,0.00,,SKC,0.00,VWS V13.00,2013-04-05 11:23:00,
2013-04-05 05:28:00,44.8,28.7,29.79,North,0,0.0,0.0,53,0.00,,SKC,0.00,VWS V13.00,2013-04-05 11:28:00,
2013-04-05 05:33:00,44.6,29.5,29.79,North,0,0.0,0.0,55,0.00,,SKC,0.00,VWS V13.00,2013-04-05 11:33:00,
2013-04-05 05:39:00,44.2,29.5,29.79,North,0,0.0,0.0,56,0.00,,SKC,0.00,VWS V13.00,2013-04-05 11:39:00,
2013-04-05 05:44:00,44.1,29.8,29.79,North,0,0.0,0.0,57,0.00,,SKC,0.00,VWS V13.00,2013-04-05 11:44:00,
2013-04-05 05:49:00,43.9,30.1,29.79,North,0,0.0,0.0,58,0.00,,SKC,0.00,VWS V13.00,2013-04-05 11:49:00,
2013-04-05 05:54:00,43.7,29.9,29.79,North,0,0.0,0.0,58,0.00,,SKC,0.00,VWS V13.00,2013-04-05 11:54:00,
2013-04-05 05:59:00,43.5,30.2,29.79,North,0,0.0,0.0,59,0.00,,SKC,0.00,VWS V13.00,2013-04-05 11:59:00,
2013-04-05 06:04:00,43.3,30.0,29.79,North,0,0.0,0.0,59,0.00,,SKC,0.00,VWS V13.00,2013-04-05 12:04:00,
2013-04-05 06:09:00,43.2,30.6,29.79,North,0,0.0,0.0,61,0.00,,SKC,0.00,VWS V13.00,2013-04-05 12:09:00,
2013-04-05 06:14:00,43.0,30.9,29.79,North,0,0.0,0.0,62,0.00,,SKC,0.00,VWS V13.00,2013-04-05 12:14:00,
2013-04-05 06:19:00,42.8,31.1,29.79,North,0,0.0,0.0,63,0.00,,SKC,0.00,VWS V13.00,2013-04-05 12:19:00,
2013-04-05 06:24:00,42.4,31.5,29.79,North,0,0.0,0.0,65,0.00,,SKC,0.00,VWS V13.00,2013-04-05 12:24:00,
2013-04-05 06:29:00,42.4,31.9,29.79,North,0,0.0,0.0,66,0.00,,SKC,0.00,VWS V13.00,2013-04-05 12:29:00,
2013-04-05 06:34:00,42.4,31.5,29.79,North,0,0.0,0.0,65,0.00,,SKC,0.00,VWS V13.00,2013-04-05 12:34:00,
2013-04-05 06:39:00,42.3,31.7,29.79,North,0,0.0,0.0,66,0.00,,SKC,0.00,VWS V13.00,2013-04-05 12:39:00,
2013-04-05 06:44:00,42.1,32.3,29.79,North,0,0.0,0.0,68,0.00,,SKC,0.00,VWS V13.00,2013-04-05 12:44:00,
2013-04-05 06:49:00,42.3,32.5,29.79,North,0,0.0,0.0,68,0.00,,SKC,0.00,VWS V13.00,2013-04-05 12:49:00,
2013-04-05 06:55:00,42.1,32.3,29.79,North,0,0.0,0.0,68,0.00,,SKC,0.00,VWS V13.00,2013-04-05 12:55:00,
2013-04-05 07:00:00,42.3,33.9,29.79,North,0,0.0,0.0,72,0.00,,SKC,0.00,VWS V13.00,2013-04-05 13:00:00,
2013-04-05 07:05:00,42.4,35.8,29.79,North,0,0.0,0.0,77,0.00,,SKC,0.00,VWS V13.00,2013-04-05 13:05:00,
2013-04-05 07:10:00,42.3,36.2,29.79,North,0,0.0,0.0,79,0.00,,SKC,0.00,VWS V13.00,2013-04-05 13:10:00,
2013-04-05 07:15:00,42.4,36.7,29.79,North,0,0.0,0.0,80,0.00,,SKC,0.00,VWS V13.00,2013-04-05 13:15:00,
2013-04-05 07:20:00,42.3,36.5,29.79,North,0,0.0,0.0,80,0.00,,SKC,0.00,VWS V13.00,2013-04-05 13:20:00,
2013-04-05 07:25:00,42.4,37.0,29.79,North,0,0.0,0.0,81,0.00,,SKC,0.00,VWS V13.00,2013-04-05 13:25:00,
2013-04-05 07:30:00,42.4,37.3,29.79,North,0,0.0,0.0,82,0.00,,SKC,0.00,VWS V13.00,2013-04-05 13:30:00,
2013-04-05 07:35:00,42.4,37.0,29.79,North,0,0.0,0.0,81,0.00,,SKC,0.00,VWS V13.00,2013-04-05 13:35:00,
2013-04-05 07:40:00,42.4,37.3,29.79,North,0,0.0,0.0,82,0.00,,SKC,0.00,VWS V13.00,2013-04-05 13:40:00,
2013-04-05 07:45:00,42.4,37.7,29.82,North,0,0.0,0.0,83,0.00,,SKC,0.00,VWS V13.00,2013-04-05 13:45:00,
2013-04-05 07:50:00,42.3,37.5,29.82,North,0,0.0,0.0,83,0.00,,SKC,0.00,VWS V13.00,2013-04-05 13:50:00,
2013-04-05 07:56:00,42.1,37.3,29.82,North,0,0.0,0.0,83,0.00,,SKC,0.00,VWS V13.00,2013-04-05 13:56:00,
2013-04-05 08:01:00,42.1,37.3,29.82,North,0,0.0,0.0,83,0.00,,SKC,0.00,VWS V13.00,2013-04-05 14:01:00,
2013-04-05 08:06:00,41.7,37.0,29.82,North,0,0.0,0.0,83,0.00,,SKC,0.00,VWS V13.00,2013-04-05 14:06:00,
2013-04-05 08:11:00,41.7,37.0,29.82,North,0,0.0,0.0,83,0.00,,SKC,0.00,VWS V13.00,2013-04-05 14:11:00,
2013-04-05 08:16:00,41.5,36.8,29.82,North,0,0.0,0.0,83,0.00,,SKC,0.00,VWS V13.00,2013-04-05 14:16:00,
2013-04-05 08:21:00,41.4,36.6,29.82,North,0,0.0,0.0,83,0.00,,SKC,0.00,VWS V13.00,2013-04-05 14:21:00,
2013-04-05 08:26:00,41.2,36.7,29.82,North,0,0.0,0.0,84,0.00,,SKC,0.00,VWS V13.00,2013-04-05 14:26:00,
2013-04-05 08:32:00,41.2,36.7,29.82,North,0,0.0,0.0,84,0.00,,SKC,0.00,VWS V13.00,2013-04-05 14:32:00,
2013-04-05 08:37:00,41.2,36.7,29.82,North,0,0.0,0.0,84,0.00,,SKC,0.00,VWS V13.00,2013-04-05 14:37:00,
2013-04-05 08:42:00,41.4,36.9,29.82,North,0,0.0,0.0,84,0.00,,SKC,0.00,VWS V13.00,2013-04-05 14:42:00,
2013-04-05 08:47:00,41.2,37.0,29.82,North,0,0.0,0.0,85,0.00,,SKC,0.00,VWS V13.00,2013-04-05 14:47:00,
2013-04-05 08:52:00,41.0,36.8,29.82,North,0,0.0,0.0,85,0.00,,SKC,0.00,VWS V13.00,2013-04-05 14:52:00,
2013-04-05 08:57:00,40.8,37.0,29.82,North,0,0.0,0.0,86,0.00,,SKC,0.00,VWS V13.00,2013-04-05 14:57:00,
2013-04-05 09:03:00,40.3,36.1,29.82,North,0,0.0,0.0,85,0.00,,SKC,0.00,VWS V13.00,2013-04-05 15:03:00,
2013-04-05 09:08:00,40.1,36.3,29.82,North,0,0.0,0.0,86,0.00,,SKC,0.00,VWS V13.00,2013-04-05 15:08:00,
2013-04-05 09:13:00,39.9,36.1,29.82,North,0,0.0,0.0,86,0.00,,SKC,0.00,VWS V13.00,2013-04-05 15:13:00,
2013-04-05 09:19:00,39.7,35.9,29.82,North,0,0.0,0.0,86,0.00,,SKC,0.00,VWS V13.00,2013-04-05 15:19:00,
2013-04-05 09:24:00,39.7,35.9,29.82,North,0,0.0,0.0,86,0.00,,SKC,0.00,VWS V13.00,2013-04-05 15:24:00,
2013-04-05 09:29:00,39.4,35.2,29.85,North,0,0.0,0.0,85,0.00,,SKC,0.00,VWS V13.00,2013-04-05 15:29:00,
2013-04-05 09:34:00,39.4,35.0,29.85,North,0,0.0,0.0,84,0.00,,SKC,0.00,VWS V13.00,2013-04-05 15:34:00,
2013-04-05 09:39:00,39.2,34.8,29.85,North,0,0.0,0.0,84,0.00,,SKC,0.00,VWS V13.00,2013-04-05 15:39:00,
2013-04-05 09:44:00,39.0,34.3,29.85,North,0,0.0,0.0,83,0.00,,SKC,0.00,VWS V13.00,2013-04-05 15:44:00,
2013-04-05 09:49:00,38.8,33.8,29.85,North,0,0.0,0.0,82,0.00,,SKC,0.00,VWS V13.00,2013-04-05 15:49:00,
2013-04-05 09:54:00,38.7,33.7,29.85,North,0,0.0,0.0,82,0.00,,SKC,0.00,VWS V13.00,2013-04-05 15:54:00,
2013-04-05 09:59:00,37.9,32.0,29.85,North,0,0.0,0.0,79,0.00,,SKC,0.00,VWS V13.00,2013-04-05 15:59:00,
2013-04-05 10:04:00,37.4,31.8,29.85,North,0,0.0,0.0,80,0.00,,SKC,0.00,VWS V13.00,2013-04-05 16:04:00,
2013-04-05 10:09:00,37.0,31.8,29.85,North,0,0.0,0.0,81,0.00,,SKC,0.00,VWS V13.00,2013-04-05 16:09:00,
2013-04-05 10:15:00,37.0,32.1,29.85,North,0,0.0,0.0,82,0.00,,SKC,0.00,VWS V13.00,2013-04-05 16:15:00,
2013-04-05 10:20:00,37.2,32.5,29.85,North,0,0.0,0.0,83,0.00,,SKC,0.00,VWS V13.00,2013-04-05 16:20:00,
2013-04-05 10:25:00,37.4,32.7,29.85,North,0,0.0,0.0,83,0.00,,SKC,0.00,VWS V13.00,2013-04-05 16:25:00,
2013-04-05 10:30:00,37.4,32.7,29.85,North,0,0.0,0.0,83,0.00,,SKC,0.00,VWS V13.00,2013-04-05 16:30:00,
2013-04-05 10:35:00,37.2,32.8,29.85,North,0,0.0,0.0,84,0.00,,SKC,0.00,VWS V13.00,2013-04-05 16:35:00,
2013-04-05 10:40:00,37.0,32.7,29.85,North,0,0.0,0.0,84,0.00,,SKC,0.00,VWS V13.00,2013-04-05 16:40:00,
2013-04-05 10:45:00,36.9,32.5,29.85,North,0,0.0,0.0,84,0.00,,SKC,0.00,VWS V13.00,2013-04-05 16:45:00,
2013-04-05 10:50:00,36.7,32.3,29.85,North,0,0.0,0.0,84,0.00,,SKC,0.00,VWS V13.00,2013-04-05 16:50:00,
2013-04-05 10:55:00,36.5,31.8,29.85,North,0,0.0,0.0,83,0.00,,SKC,0.00,VWS V13.00,2013-04-05 16:55:00,
2013-04-05 11:00:00,36.3,31.7,29.88,North,0,0.0,0.0,83,0.00,,SKC,0.00,VWS V13.00,2013-04-05 17:00:00,
2013-04-05 11:05:00,36.5,32.1,29.88,North,0,0.0,0.0,84,0.00,,SKC,0.00,VWS V13.00,2013-04-05 17:05:00,
2013-04-05 11:10:00,36.7,32.3,29.88,North,0,0.0,0.0,84,0.00,,SKC,0.00,VWS V13.00,2013-04-05 17:10:00,
2013-04-05 11:15:00,36.9,32.5,29.85,North,0,0.0,0.0,84,0.00,,SKC,0.00,VWS V13.00,2013-04-05 17:15:00,
2013-04-05 11:20:00,37.6,33.5,29.85,North,0,0.0,0.0,85,0.00,,SKC,0.00,VWS V13.00,2013-04-05 17:20:00,
2013-04-05 11:26:00,38.3,34.2,29.85,North,0,0.0,0.0,85,0.00,,SKC,0.00,VWS V13.00,2013-04-05 17:26:00,
2013-04-05 11:31:00,39.2,35.1,29.85,North,0,0.0,0.0,85,0.00,,SKC,0.00,VWS V13.00,2013-04-05 17:31:00,
2013-04-05 11:36:00,39.9,35.5,29.85,North,0,0.0,0.0,84,0.00,,SKC,0.00,VWS V13.00,2013-04-05 17:36:00,
2013-04-05 11:42:00,40.3,35.5,29.85,North,0,0.0,0.0,83,0.00,,SKC,0.00,VWS V13.00,2013-04-05 17:42:00,
2013-04-05 11:47:00,41.0,35.9,29.85,North,0,0.0,0.0,82,0.00,,SKC,0.00,VWS V13.00,2013-04-05 17:47:00,
2013-04-05 11:52:00,41.5,36.2,29.85,North,0,0.0,0.0,81,0.00,,SKC,0.00,VWS V13.00,2013-04-05 17:52:00,
2013-04-05 11:57:00,42.1,36.7,29.85,North,0,0.0,0.0,81,0.00,,SKC,0.00,VWS V13.00,2013-04-05 17:57:00,
2013-04-05 12:02:00,42.8,37.4,29.85,North,0,0.0,0.0,81,0.00,,SKC,0.00,VWS V13.00,2013-04-05 18:02:00,
2013-04-05 12:07:00,43.3,36.6,29.85,North,0,0.0,0.0,77,0.00,,SKC,0.00,VWS V13.00,2013-04-05 18:07:00,
2013-04-05 12:12:00,43.5,36.5,29.85,North,0,0.0,0.0,76,0.00,,SKC,0.00,VWS V13.00,2013-04-05 18:12:00,
2013-04-05 12:17:00,43.5,36.1,29.85,North,0,0.0,0.0,75,0.00,,SKC,0.00,VWS V13.00,2013-04-05 18:17:00,
2013-04-05 12:22:00,43.2,35.8,29.85,North,0,0.0,0.0,75,0.00,,SKC,0.00,VWS V13.00,2013-04-05 18:22:00,
2013-04-05 12:27:00,43.2,35.8,29.85,North,0,0.0,0.0,75,0.00,,SKC,0.00,VWS V13.00,2013-04-05 18:27:00,
2013-04-05 12:32:00,43.0,36.0,29.85,North,0,0.0,0.0,76,0.00,,SKC,0.00,VWS V13.00,2013-04-05 18:32:00,
2013-04-05 12:37:00,43.0,36.0,29.85,North,0,0.0,0.0,76,0.00,,SKC,0.00,VWS V13.00,2013-04-05 18:37:00,
2013-04-05 12:42:00,43.0,36.0,29.85,North,0,0.0,0.0,76,0.00,,SKC,0.00,VWS V13.00,2013-04-05 18:42:00,
2013-04-05 12:47:00,43.2,36.5,29.85,North,0,0.0,0.0,77,0.00,,SKC,0.00,VWS V13.00,2013-04-05 18:47:00,
2013-04-05 12:52:00,43.5,36.8,29.85,North,0,0.0,0.0,77,0.00,,SKC,0.00,VWS V13.00,2013-04-05 18:52:00,
2013-04-05 12:57:00,44.1,37.0,29.85,North,0,0.0,0.0,76,0.00,,SKC,0.00,VWS V13.00,2013-04-05 18:57:00,
2013-04-05 13:02:00,44.2,36.8,29.85,North,0,0.0,0.0,75,0.00,,SKC,0.00,VWS V13.00,2013-04-05 19:02:00,
2013-04-05 13:07:00,44.1,36.3,29.85,North,0,0.0,0.0,74,0.00,,SKC,0.00,VWS V13.00,2013-04-05 19:07:00,
2013-04-05 13:12:00,44.2,36.2,29.85,North,0,0.0,0.0,73,0.00,,SKC,0.00,VWS V13.00,2013-04-05 19:12:00,
2013-04-05 13:18:00,45.1,36.3,29.85,North,0,0.0,0.0,71,0.00,,SKC,0.00,VWS V13.00,2013-04-05 19:18:00,
2013-04-05 13:23:00,46.0,36.5,29.85,North,0,0.0,0.0,69,0.00,,SKC,0.00,VWS V13.00,2013-04-05 19:23:00,
2013-04-05 13:28:00,46.6,36.2,29.85,North,0,0.0,0.0,67,0.00,,SKC,0.00,VWS V13.00,2013-04-05 19:28:00,
2013-04-05 13:33:00,46.0,33.0,29.85,North,0,0.0,0.0,60,0.00,,SKC,0.00,VWS V13.00,2013-04-05 19:33:00,
2013-04-05 13:38:00,45.5,33.7,29.85,North,0,0.0,0.0,63,0.00,,SKC,0.00,VWS V13.00,2013-04-05 19:38:00,
2013-04-05 13:43:00,45.3,35.0,29.85,North,0,0.0,0.0,67,0.00,,SKC,0.00,VWS V13.00,2013-04-05 19:43:00,
2013-04-05 13:48:00,45.1,33.3,29.85,North,0,0.0,0.0,63,0.00,,SKC,0.00,VWS V13.00,2013-04-05 19:48:00,
2013-04-05 13:53:00,45.1,34.1,29.85,North,0,0.0,0.0,65,0.00,,SKC,0.00,VWS V13.00,2013-04-05 19:53:00,
2013-04-05 13:58:00,45.5,34.8,29.85,North,0,0.0,0.0,66,0.00,,SKC,0.00,VWS V13.00,2013-04-05 19:58:00,
2013-04-05 14:03:00,46.4,34.9,29.85,North,0,0.0,0.0,64,0.00,,SKC,0.00,VWS V13.00,2013-04-05 20:03:00,
2013-04-05 14:08:00,46.6,32.2,29.85,North,0,0.0,0.0,57,0.00,,SKC,0.00,VWS V13.00,2013-04-05 20:08:00,
2013-04-05 14:13:00,47.1,34.4,29.85,North,0,0.0,0.0,61,0.00,,SKC,0.00,VWS V13.00,2013-04-05 20:13:00,
2013-04-05 14:18:00,47.5,32.6,29.85,North,0,0.0,0.0,56,0.00,,SKC,0.00,VWS V13.00,2013-04-05 20:18:00,
2013-04-05 14:23:00,48.0,32.2,29.85,North,0,0.0,0.0,54,0.00,,SKC,0.00,VWS V13.00,2013-04-05 20:23:00,
2013-04-05 14:28:00,48.4,30.6,29.85,North,0,0.0,0.0,50,0.00,,SKC,0.00,VWS V13.00,2013-04-05 20:28:00,
2013-04-05 14:34:00,48.7,28.9,29.85,North,0,0.0,0.0,46,0.00,,SKC,0.00,VWS V13.00,2013-04-05 20:34:00,
2013-04-05 14:39:00,48.2,28.9,29.85,North,0,0.0,0.0,47,0.00,,SKC,0.00,VWS V13.00,2013-04-05 20:39:00,
2013-04-05 14:44:00,48.6,29.3,29.85,North,0,0.0,0.0,47,0.00,,SKC,0.00,VWS V13.00,2013-04-05 20:44:00,
2013-04-05 14:49:00,48.6,29.3,29.85,North,0,0.0,0.0,47,0.00,,SKC,0.00,VWS V13.00,2013-04-05 20:49:00,
2013-04-05 14:55:00,48.4,27.5,29.85,North,0,0.0,0.0,44,0.00,,SKC,0.00,VWS V13.00,2013-04-05 20:55:00,
2013-04-05 15:00:00,48.0,29.3,29.85,North,0,0.0,0.0,48,0.00,,SKC,0.00,VWS V13.00,2013-04-05 21:00:00,
2013-04-05 15:05:00,47.5,27.8,29.85,North,0,0.0,0.0,46,0.00,,SKC,0.00,VWS V13.00,2013-04-05 21:05:00,
2013-04-05 15:10:00,47.3,28.1,29.85,North,0,0.0,0.0,47,0.00,,SKC,0.00,VWS V13.00,2013-04-05 21:10:00,
2013-04-05 15:15:00,47.3,27.0,29.85,North,0,0.0,0.0,45,0.00,,SKC,0.00,VWS V13.00,2013-04-05 21:15:00,
2013-04-05 15:20:00,47.5,27.8,29.85,North,0,0.0,0.0,46,0.00,,SKC,0.00,VWS V13.00,2013-04-05 21:20:00,
2013-04-05 15:25:00,47.7,28.4,29.85,North,0,0.0,0.0,47,0.00,,SKC,0.00,VWS V13.00,2013-04-05 21:25:00,
2013-04-05 15:30:00,47.7,27.9,29.85,North,0,0.0,0.0,46,0.00,,SKC,0.00,VWS V13.00,2013-04-05 21:30:00,
2013-04-05 15:35:00,47.5,28.8,29.85,North,0,0.0,0.0,48,0.00,,SKC,0.00,VWS V13.00,2013-04-05 21:35:00,
2013-04-05 15:40:00,47.5,27.8,29.85,North,0,0.0,0.0,46,0.00,,SKC,0.00,VWS V13.00,2013-04-05 21:40:00,
2013-04-05 15:46:00,47.1,27.4,29.85,North,0,0.0,0.0,46,0.00,,SKC,0.00,VWS V13.00,2013-04-05 21:46:00,
2013-04-05 15:51:00,46.6,26.9,29.85,North,0,0.0,0.0,46,0.00,,SKC,0.00,VWS V13.00,2013-04-05 21:51:00,
2013-04-05 15:56:00,46.4,27.8,29.85,North,0,0.0,0.0,48,0.00,,SKC,0.00,VWS V13.00,2013-04-05 21:56:00,
2013-04-05 16:01:00,46.4,27.3,29.82,North,0,0.0,0.0,47,0.00,,SKC,0.00,VWS V13.00,2013-04-05 22:01:00,
2013-04-05 16:06:00,46.2,26.1,29.82,North,0,0.0,0.0,45,0.00,,SKC,0.00,VWS V13.00,2013-04-05 22:06:00,
2013-04-05 16:12:00,46.2,27.1,29.82,North,0,0.0,0.0,47,0.00,,SKC,0.00,VWS V13.00,2013-04-05 22:12:00,
2013-04-05 16:17:00,46.4,27.8,29.82,North,0,0.0,0.0,48,0.00,,SKC,0.00,VWS V13.00,2013-04-05 22:17:00,
2013-04-05 16:22:00,46.2,28.1,29.82,North,0,0.0,0.0,49,0.00,,SKC,0.00,VWS V13.00,2013-04-05 22:22:00,
2013-04-05 16:27:00,46.0,28.0,29.82,North,0,0.0,0.0,49,0.00,,SKC,0.00,VWS V13.00,2013-04-05 22:27:00,
2013-04-05 16:32:00,45.9,28.3,29.82,North,0,0.0,0.0,50,0.00,,SKC,0.00,VWS V13.00,2013-04-05 22:32:00,
2013-04-05 16:37:00,45.9,27.8,29.82,North,0,0.0,0.0,49,0.00,,SKC,0.00,VWS V13.00,2013-04-05 22:37:00,
2013-04-05 16:42:00,45.9,27.8,29.82,North,0,0.0,0.0,49,0.00,,SKC,0.00,VWS V13.00,2013-04-05 22:42:00,
2013-04-05 16:47:00,46.4,26.2,29.82,North,0,0.0,0.0,45,0.00,,SKC,0.00,VWS V13.00,2013-04-05 22:47:00,
2013-04-05 16:52:00,46.6,25.3,29.82,North,0,0.0,0.0,43,0.00,,SKC,0.00,VWS V13.00,2013-04-05 22:52:00,
2013-04-05 16:57:00,46.8,25.5,29.82,North,0,0.0,0.0,43,0.00,,SKC,0.00,VWS V13.00,2013-04-05 22:57:00,
2013-04-05 17:02:00,46.9,25.1,29.82,North,0,0.0,0.0,42,0.00,,SKC,0.00,VWS V13.00,2013-04-05 23:02:00,
2013-04-05 17:07:00,46.9,25.1,29.82,North,0,0.0,0.0,42,0.00,,SKC,0.00,VWS V13.00,2013-04-05 23:07:00,
2013-04-05 17:12:00,46.8,24.3,29.82,North,0,0.0,0.0,41,0.00,,SKC,0.00,VWS V13.00,2013-04-05 23:12:00,
2013-04-05 17:17:00,46.6,24.2,29.82,North,0,0.0,0.0,41,0.00,,SKC,0.00,VWS V13.00,2013-04-05 23:17:00,
2013-04-05 17:22:00,46.6,23.6,29.82,North,0,0.0,0.0,40,0.00,,SKC,0.00,VWS V13.00,2013-04-05 23:22:00,
2013-04-05 17:27:00,46.4,23.4,29.82,North,0,0.0,0.0,40,0.00,,SKC,0.00,VWS V13.00,2013-04-05 23:27:00,
2013-04-05 17:32:00,46.2,24.4,29.82,North,0,0.0,0.0,42,0.00,,SKC,0.00,VWS V13.00,2013-04-05 23:32:00,
2013-04-05 17:37:00,46.0,24.2,29.82,North,0,0.0,0.0,42,0.00,,SKC,0.00,VWS V13.00,2013-04-05 23:37:00,
2013-04-05 17:42:00,45.7,23.9,29.85,North,0,0.0,0.0,42,0.00,,SKC,0.00,VWS V13.00,2013-04-05 23:42:00,
2013-04-05 17:47:00,45.7,25.6,29.85,North,0,0.0,0.0,45,0.00,,SKC,0.00,VWS V13.00,2013-04-05 23:47:00,
2013-04-05 17:53:00,45.3,26.3,29.85,North,0,0.0,0.0,47,0.00,,SKC,0.00,VWS V13.00,2013-04-05 23:53:00,
2013-04-05 17:58:00,45.0,25.4,29.85,North,0,0.0,0.0,46,0.00,,SKC,0.00,VWS V13.00,2013-04-05 23:58:00,
2013-04-05 18:03:00,44.8,25.8,29.85,North,0,0.0,0.0,47,0.00,,SKC,0.00,VWS V13.00,2013-04-06 00:03:00,
2013-04-05 18:08:00,45.0,25.4,29.85,North,0,0.0,0.0,46,0.00,,SKC,0.00,VWS V13.00,2013-04-06 00:08:00,
2013-04-05 18:13:00,45.1,25.1,29.82,North,0,0.0,0.0,45,0.00,,SKC,0.00,VWS V13.00,2013-04-06 00:13:00,
2013-04-05 18:18:00,45.5,23.8,29.82,North,0,0.0,0.0,42,0.00,,SKC,0.00,VWS V13.00,2013-04-06 00:18:00,
2013-04-05 18:23:00,45.9,24.1,29.82,North,0,0.0,0.0,42,0.00,,SKC,0.00,VWS V13.00,2013-04-06 00:23:00,
2013-04-05 18:28:00,45.9,23.5,29.85,North,0,0.0,0.0,41,0.00,,SKC,0.00,VWS V13.00,2013-04-06 00:28:00,
2013-04-05 18:33:00,45.9,23.5,29.85,North,0,0.0,0.0,41,0.00,,SKC,0.00,VWS V13.00,2013-04-06 00:33:00,
2013-04-05 18:38:00,45.5,24.3,29.85,North,0,0.0,0.0,43,0.00,,SKC,0.00,VWS V13.00,2013-04-06 00:38:00,
2013-04-05 18:43:00,45.1,24.0,29.82,North,0,0.0,0.0,43,0.00,,SKC,0.00,VWS V13.00,2013-04-06 00:43:00,
2013-04-05 18:48:00,45.1,23.4,29.82,North,0,0.0,0.0,42,0.00,,SKC,0.00,VWS V13.00,2013-04-06 00:48:00,
2013-04-05 18:53:00,45.0,23.8,29.82,North,0,0.0,0.0,43,0.00,,SKC,0.00,VWS V13.00,2013-04-06 00:53:00,
2013-04-05 18:58:00,44.6,22.4,29.82,North,0,0.0,0.0,41,0.00,,SKC,0.00,VWS V13.00,2013-04-06 00:58:00,
2013-04-05 19:03:00,44.4,22.2,29.82,North,0,0.0,0.0,41,0.00,,SKC,0.00,VWS V13.00,2013-04-06 01:03:00,
2013-04-05 19:08:00,44.2,23.7,29.82,North,0,0.0,0.0,44,0.00,,SKC,0.00,VWS V13.00,2013-04-06 01:08:00,
2013-04-05 19:13:00,43.9,23.4,29.82,North,0,0.0,0.0,44,0.00,,SKC,0.00,VWS V13.00,2013-04-06 01:13:00,
2013-04-05 19:18:00,43.7,22.7,29.82,North,0,0.0,0.0,43,0.00,,SKC,0.00,VWS V13.00,2013-04-06 01:18:00,
2013-04-05 19:23:00,43.5,23.1,29.82,North,0,0.0,0.0,44,0.00,,SKC,0.00,VWS V13.00,2013-04-06 01:23:00,
2013-04-05 19:28:00,43.2,24.3,29.82,North,0,0.0,0.0,47,0.00,,SKC,0.00,VWS V13.00,2013-04-06 01:28:00,
2013-04-05 19:33:00,42.6,24.8,29.82,North,0,0.0,0.0,49,0.00,,SKC,0.00,VWS V13.00,2013-04-06 01:33:00,
2013-04-05 19:38:00,42.3,24.0,29.82,North,0,0.0,0.0,48,0.00,,SKC,0.00,VWS V13.00,2013-04-06 01:38:00,
2013-04-05 19:43:00,41.7,24.5,29.85,North,0,0.0,0.0,50,0.00,,SKC,0.00,VWS V13.00,2013-04-06 01:43:00,
2013-04-05 19:48:00,41.5,23.8,29.85,North,0,0.0,0.0,49,0.00,,SKC,0.00,VWS V13.00,2013-04-06 01:48:00,
2013-04-05 19:53:00,41.2,24.4,29.85,North,0,0.0,0.0,51,0.00,,SKC,0.00,VWS V13.00,2013-04-06 01:53:00,
2013-04-05 19:58:00,40.6,25.8,29.85,North,0,0.0,0.0,55,0.00,,SKC,0.00,VWS V13.00,2013-04-06 01:58:00,
2013-04-05 20:04:00,40.1,25.7,29.85,North,0,0.0,0.0,56,0.00,,SKC,0.00,VWS V13.00,2013-04-06 02:04:00,
2013-04-05 20:09:00,39.7,26.2,29.85,North,0,0.0,0.0,58,0.00,,SKC,0.00,VWS V13.00,2013-04-06 02:09:00,
2013-04-05 20:14:00,39.4,26.3,29.85,North,0,0.0,0.0,59,0.00,,SKC,0.00,VWS V13.00,2013-04-06 02:14:00,
2013-04-05 20:19:00,39.0,26.7,29.85,North,0,0.0,0.0,61,0.00,,SKC,0.00,VWS V13.00,2013-04-06 02:19:00,
2013-04-05 20:24:00,38.8,26.6,29.85,North,0,0.0,0.0,61,0.00,,SKC,0.00,VWS V13.00,2013-04-06 02:24:00,
2013-04-05 20:29:00,38.7,26.4,29.85,North,0,0.0,0.0,61,0.00,,SKC,0.00,VWS V13.00,2013-04-06 02:29:00,
2013-04-05 20:34:00,38.7,26.4,29.85,North,0,0.0,0.0,61,0.00,,SKC,0.00,VWS V13.00,2013-04-06 02:34:00,
2013-04-05 20:39:00,38.8,26.6,29.85,North,0,0.0,0.0,61,0.00,,SKC,0.00,VWS V13.00,2013-04-06 02:39:00,
2013-04-05 20:44:00,38.7,26.4,29.85,North,0,0.0,0.0,61,0.00,,SKC,0.00,VWS V13.00,2013-04-06 02:44:00,
2013-04-05 20:49:00,38.5,26.2,29.85,North,0,0.0,0.0,61,0.00,,SKC,0.00,VWS V13.00,2013-04-06 02:49:00,
2013-04-05 20:55:00,38.1,25.5,29.85,North,0,0.0,0.0,60,0.00,,SKC,0.00,VWS V13.00,2013-04-06 02:55:00,
2013-04-05 21:00:00,37.8,25.1,29.85,North,0,0.0,0.0,60,0.00,,SKC,0.00,VWS V13.00,2013-04-06 03:00:00,
2013-04-05 21:05:00,37.6,25.0,29.85,North,0,0.0,0.0,60,0.00,,SKC,0.00,VWS V13.00,2013-04-06 03:05:00,
2013-04-05 21:10:00,37.2,25.0,29.85,North,0,0.0,0.0,61,0.00,,SKC,0.00,VWS V13.00,2013-04-06 03:10:00,
2013-04-05 21:15:00,36.9,25.1,29.85,North,0,0.0,0.0,62,0.00,,SKC,0.00,VWS V13.00,2013-04-06 03:15:00,
2013-04-05 21:20:00,36.7,25.3,29.85,North,0,0.0,0.0,63,0.00,,SKC,0.00,VWS V13.00,2013-04-06 03:20:00,
2013-04-05 21:26:00,36.1,24.8,29.85,North,0,0.0,0.0,63,0.00,,SKC,0.00,VWS V13.00,2013-04-06 03:26:00,
2013-04-05 21:31:00,36.0,25.0,29.88,North,0,0.0,0.0,64,0.00,,SKC,0.00,VWS V13.00,2013-04-06 03:31:00,
2013-04-05 21:36:00,36.0,25.0,29.88,North,0,0.0,0.0,64,0.00,,SKC,0.00,VWS V13.00,2013-04-06 03:36:00,
2013-04-05 21:41:00,35.8,25.2,29.88,North,0,0.0,0.0,65,0.00,,SKC,0.00,VWS V13.00,2013-04-06 03:41:00,
2013-04-05 21:46:00,35.6,25.4,29.88,North,0,0.0,0.0,66,0.00,,SKC,0.00,VWS V13.00,2013-04-06 03:46:00,
2013-04-05 21:51:00,35.6,25.4,29.88,North,0,0.0,0.0,66,0.00,,SKC,0.00,VWS V13.00,2013-04-06 03:51:00,
2013-04-05 21:56:00,35.4,25.6,29.88,North,0,0.0,0.0,67,0.00,,SKC,0.00,VWS V13.00,2013-04-06 03:56:00,
2013-04-05 22:00:00,35.4,25.6,29.88,North,0,0.0,0.0,67,0.00,,SKC,0.00,VWS V13.00,2013-04-06 04:00:00,
2013-04-05 22:01:00,35.4,25.6,29.88,North,0,0.0,0.0,67,0.00,,SKC,0.00,VWS V13.00,2013-04-06 04:01:00,
2013-04-05 22:07:00,35.6,25.7,29.88,North,0,0.0,0.0,67,0.00,,SKC,0.00,VWS V13.00,2013-04-06 04:07:00,
2013-04-05 22:12:00,35.6,25.7,29.88,North,0,0.0,0.0,67,0.00,,SKC,0.00,VWS V13.00,2013-04-06 04:12:00,
2013-04-05 22:17:00,36.0,26.1,29.88,North,0,0.0,0.0,67,0.00,,SKC,0.00,VWS V13.00,2013-04-06 04:17:00,
2013-04-05 22:22:00,35.8,25.9,29.88,North,0,0.0,0.0,67,0.00,,SKC,0.00,VWS V13.00,2013-04-06 04:22:00,
2013-04-05 22:27:00,35.8,25.5,29.88,North,0,0.0,0.0,66,0.00,,SKC,0.00,VWS V13.00,2013-04-06 04:27:00,
2013-04-05 22:32:00,35.6,25.4,29.88,North,0,0.0,0.0,66,0.00,,SKC,0.00,VWS V13.00,2013-04-06 04:32:00,
2013-04-05 22:37:00,35.8,25.5,29.88,North,0,0.0,0.0,66,0.00,,SKC,0.00,VWS V13.00,2013-04-06 04:37:00,
2013-04-05 22:42:00,35.4,25.2,29.88,North,0,0.0,0.0,66,0.00,,SKC,0.00,VWS V13.00,2013-04-06 04:42:00,
2013-04-05 22:47:00,35.4,25.2,29.88,North,0,0.0,0.0,66,0.00,,SKC,0.00,VWS V13.00,2013-04-06 04:47:00,
2013-04-05 22:52:00,35.2,25.0,29.88,North,0,0.0,0.0,66,0.00,,SKC,0.00,VWS V13.00,2013-04-06 04:52:00,
2013-04-05 22:57:00,35.1,24.9,29.88,North,0,0.0,0.0,66,0.00,,SKC,0.00,VWS V13.00,2013-04-06 04:57:00,
2013-04-05 23:02:00,34.5,24.7,29.88,North,0,0.0,0.0,67,0.00,,SKC,0.00,VWS V13.00,2013-04-06 05:02:00,
2013-04-05 23:07:00,34.3,24.9,29.88,North,0,0.0,0.0,68,0.00,,SKC,0.00,VWS V13.00,2013-04-06 05:07:00,
2013-04-05 23:12:00,34.3,24.9,29.88,North,0,0.0,0.0,68,0.00,,SKC,0.00,VWS V13.00,2013-04-06 05:12:00,
2013-04-05 23:17:00,34.3,25.2,29.88,North,0,0.0,0.0,69,0.00,,SKC,0.00,VWS V13.00,2013-04-06 05:17:00,
2013-04-05 23:22:00,34.0,24.9,29.88,North,0,0.0,0.0,69,0.00,,SKC,0.00,VWS V13.00,2013-04-06 05:22:00,
2013-04-05 23:27:00,34.0,25.2,29.85,North,0,0.0,0.0,70,0.00,,SKC,0.00,VWS V13.00,2013-04-06 05:27:00,
2013-04-05 23:32:00,33.8,25.1,29.85,North,0,0.0,0.0,70,0.00,,SKC,0.00,VWS V13.00,2013-04-06 05:32:00,
2013-04-05 23:37:00,33.8,25.4,29.85,North,0,0.0,0.0,71,0.00,,SKC,0.00,VWS V13.00,2013-04-06 05:37:00,
2013-04-05 23:43:00,33.8,25.4,29.85,North,0,0.0,0.0,71,0.00,,SKC,0.00,VWS V13.00,2013-04-06 05:43:00,
2013-04-05 23:48:00,33.8,25.4,29.85,North,0,0.0,0.0,71,0.00,,SKC,0.00,VWS V13.00,2013-04-06 05:48:00,
2013-04-05 23:53:00,34.0,25.6,29.85,North,0,0.0,0.0,71,0.00,,SKC,0.00,VWS V13.00,2013-04-06 05:53:00,
2013-04-05 23:58:00,34.2,25.8,29.85,North,0,0.0,0.0,71,0.00,,SKC,0.00,VWS V13.00,2013-04-06 05:58:00,